Regional Weather Roundup
Issued by NWS

Home | Current Version | Previous Version | Graphics & Text | Print | Product List | Glossary On
Versions: 1 2 3 4 5 6 7 8 9 10 11 12 13 14 15 16 17 18 19 20 21 22 23 24 25 26 27 28 29 30 31 32 33 34 35 36 37 38 39 40 41 42 43 44 45 46 47 48 49 50
000
ASUS43 KLSX 231859
RWRMO

WEATHER SUMMARY FOR MISSOURI
NATIONAL WEATHER SERVICE SPRINGFIELD MO
100 PM CST SUN NOV 23 2014

NOTE: "FAIR" INDICATES FEW OR NO CLOUDS BELOW 12,000 FEET WITH NO
       SIGNIFICANT WEATHER AND/OR OBSTRUCTIONS TO VISIBILITY.
       CURRENT SKY AND/OR WEATHER CONDITIONS ARE NOT AVAILABLE FOR
       CHILLICOTHE AND FARMINGTON.

MOZ001>031-035>038-043-044-053-054-232000-
...NORTHERN AND WESTERN MISSOURI...

CITY           SKY/WX    TMP DP  RH WIND       PRES   REMARKS
KANSAS CTY INT CLOUDY    57  54  89 W3        29.37F
KANSAS C DTWN  CLOUDY    57  55  93 CALM      29.37F FOG
ST JOSEPH      LGT RAIN  56  54  93 SW3       29.38F FOG
CHILLICOTHE      N/A     55  54  96 VRB3      29.40F
KIRKSVILLE     LGT RAIN  54  54 100 S7        29.40F FOG

$$
MOZ066>068-077>081-088>096-101>105-232000-
...SOUTHWEST MISSOURI...

CITY           SKY/WX    TMP DP  RH WIND       PRES   REMARKS
SPRINGFIELD    CLOUDY    57  54  89 S9        29.37F
JOPLIN         CLOUDY    64  53  67 S9        29.35F

$$
MOZ032>034-039>042-045>050-055>058-069>072-232000-
...CENTRAL MISSOURI...

CITY           SKY/WX    TMP DP  RH WIND       PRES   REMARKS
COLUMBIA       CLOUDY    54  54 100 SE10      29.41F FOG
JEFFERSON CITY CLOUDY    54  53  97 SE5       29.41F FOG
ROLLA          LGT RAIN  54  52  93 S10       29.40F FOG
SEDALIA        LGT RAIN  56  54  93 S6        29.40F FOG
WHITEMAN AFB   DRIZZLE   55  54  94 S6        29.38F
WARRENSBURG    CLOUDY    55  52  88 SE8       29.38F
OSAGE BEACH    CLOUDY    55  52  88 SE3       29.40F

$$
MOZ051-052-059>065-232000-
...EAST CENTRAL MISSOURI...

CITY           SKY/WX    TMP DP  RH WIND       PRES   REMARKS
ST LOUIS INTL  LGT RAIN  56  52  86 SE14      29.46F FOG
SPIRIT OF STL  LGT RAIN  55  53  93 VRB3      29.44F FOG
ST CHARLES     RAIN      54  53  97 SE9       29.46F FOG

$$
MOZ072>076-082>087-097>100-106>115-232000-
...SOUTH CENTRAL AND SOUTHEAST MISSOURI...

CITY           SKY/WX    TMP DP  RH WIND       PRES   REMARKS
CAPE GIRARDEAU RAIN      56  55  97 SE13      29.48F FOG
FARMINGTON     CLOUDY    55  54  94 E10G17    29.47F
POPLAR BLUFF   LGT RAIN  57  55  93 SE8       29.44F FOG
WEST PLAINS    RAIN      55  53  93 SE8       29.43F FOG

$$


USA.gov is the U.S. government's official web portal to all federal, state and local government web resources and services.